SWA2323 KMSY-KBNA

Flight info

Callsign SWA2323
Flight time 1h 6m
Altitude 35000
Route HRV J31 MEI KISTS CHSNE3
Aircraft B738/M-SDE2E3FGHIRWXY/LB1

Departure

Time 2026-05-06 23:35
Airport Louis Armstrong New Orleans International Airport (KMSY)

Arrival

Time 2026-05-07 00:41
Airport Nashville International Airport (KBNA)
Time Latitude Longitude Altitude Speed Heading
2026-05-06 22:55 29.99446 -90.25738 5 ft 0 kts 101°
2026-05-06 23:21 29.99448 -90.25748 5 ft 3 kts 101°
2026-05-06 23:21 29.99451 -90.25771 5 ft 3 kts 101°
2026-05-06 23:21 29.99455 -90.25794 6 ft 3 kts 101°
2026-05-06 23:21 29.99459 -90.25817 5 ft 3 kts 101°
2026-05-06 23:22 29.99463 -90.25840 5 ft 3 kts 103°
2026-05-06 23:22 29.99466 -90.25856 6 ft 1 kts 105°
2026-05-06 23:22 29.99466 -90.25857 6 ft 1 kts 105°
2026-05-06 23:24 29.99466 -90.25856 6 ft 1 kts 105°
2026-05-06 23:24 29.99459 -90.25834 5 ft 5 kts 121°
2026-05-06 23:25 29.99426 -90.25823 3 ft 6 kts 197°
2026-05-06 23:25 29.99373 -90.25842 3 ft 9 kts 198°
2026-05-06 23:25 29.99342 -90.25893 2 ft 8 kts 273°
2026-05-06 23:25 29.99356 -90.25957 2 ft 8 kts 285°
2026-05-06 23:26 29.99370 -90.26020 2 ft 8 kts 284°
2026-05-06 23:26 29.99384 -90.26080 4 ft 8 kts 286°
2026-05-06 23:26 29.99400 -90.26138 5 ft 8 kts 284°
2026-05-06 23:26 29.99417 -90.26211 6 ft 12 kts 286°
2026-05-06 23:27 29.99443 -90.26318 7 ft 16 kts 285°
2026-05-06 23:27 29.99474 -90.26445 8 ft 16 kts 285°
2026-05-06 23:27 29.99503 -90.26565 10 ft 15 kts 286°
2026-05-06 23:27 29.99531 -90.26680 9 ft 15 kts 285°
2026-05-06 23:28 29.99558 -90.26791 10 ft 14 kts 285°
2026-05-06 23:28 29.99584 -90.26902 11 ft 16 kts 285°
2026-05-06 23:28 29.99615 -90.27030 9 ft 17 kts 286°
2026-05-06 23:28 29.99648 -90.27166 5 ft 17 kts 285°
2026-05-06 23:29 29.99680 -90.27299 5 ft 17 kts 285°
2026-05-06 23:29 29.99711 -90.27427 4 ft 16 kts 285°
2026-05-06 23:29 29.99740 -90.27550 4 ft 15 kts 285°
2026-05-06 23:29 29.99742 -90.27632 3 ft 10 kts 244°
2026-05-06 23:30 29.99685 -90.27677 1 ft 11 kts 195°
2026-05-06 23:30 29.99606 -90.27701 -1 ft 12 kts 195°
2026-05-06 23:30 29.99553 -90.27763 0 ft 11 kts 239°
2026-05-06 23:30 29.99486 -90.27797 1 ft 9 kts 197°
2026-05-06 23:31 29.99462 -90.27858 2 ft 9 kts 279°
2026-05-06 23:31 29.99478 -90.27927 4 ft 9 kts 285°
2026-05-06 23:31 29.99494 -90.27994 5 ft 9 kts 285°
2026-05-06 23:31 29.99509 -90.28058 6 ft 8 kts 285°
2026-05-06 23:32 29.99525 -90.28122 7 ft 8 kts 286°
2026-05-06 23:32 29.99552 -90.28174 6 ft 8 kts 320°
2026-05-06 23:32 29.99604 -90.28174 6 ft 8 kts 14°
2026-05-06 23:32 29.99646 -90.28162 6 ft 5 kts 21°
2026-05-06 23:33 29.99652 -90.28123 5 ft 6 kts 105°
2026-05-06 23:33 29.99650 -90.28118 5 ft 0 kts 106°
2026-05-06 23:33 29.99650 -90.28117 7 ft 0 kts 106°
2026-05-06 23:33 29.99650 -90.28116 7 ft 1 kts 106°
2026-05-06 23:34 29.99647 -90.28103 5 ft 4 kts 106°
2026-05-06 23:34 29.99607 -90.27945 5 ft 51 kts 107°
2026-05-06 23:34 29.99449 -90.27294 3 ft 115 kts 104°
2026-05-06 23:34 29.99183 -90.26217 21 ft 163 kts 106°
2026-05-06 23:35 29.98842 -90.24976 638 ft 160 kts 111°
2026-05-06 23:35 29.98543 -90.23714 1270 ft 169 kts 105°
2026-05-06 23:35 29.98422 -90.22386 1803 ft 177 kts 105°
2026-05-06 23:35 29.98091 -90.20996 2216 ft 186 kts 129°
2026-05-06 23:36 29.97220 -90.19849 2610 ft 197 kts 141°
2026-05-06 23:36 29.96267 -90.18603 2904 ft 217 kts 139°
2026-05-06 23:36 29.95220 -90.17235 3134 ft 236 kts 139°
2026-05-06 23:36 29.94111 -90.15788 3514 ft 248 kts 139°
2026-05-06 23:37 29.92883 -90.14228 3627 ft 276 kts 139°
2026-05-06 23:37 29.91586 -90.12611 4468 ft 275 kts 139°
2026-05-06 23:37 29.90286 -90.10972 5199 ft 280 kts 139°
2026-05-06 23:37 29.88986 -90.09267 5915 ft 289 kts 131°
2026-05-06 23:38 29.87970 -90.07250 6754 ft 291 kts 123°
2026-05-06 23:38 29.87086 -90.05161 7542 ft 292 kts 120°
2026-05-06 23:38 29.86633 -90.02797 7967 ft 317 kts 92°
2026-05-06 23:38 29.87165 -90.00319 8634 ft 324 kts 61°
2026-05-06 23:39 29.88622 -89.98378 9346 ft 324 kts 31°
2026-05-06 23:39 29.90643 -89.97272 9992 ft 321 kts 15°
2026-05-06 23:39 29.92746 -89.96399 10632 ft 324 kts 14°
2026-05-06 23:39 29.94919 -89.95502 10986 ft 339 kts 15°
2026-05-06 23:40 29.97156 -89.94542 11522 ft 344 kts 16°
2026-05-06 23:40 29.99361 -89.93548 12367 ft 341 kts 16°
2026-05-06 23:40 30.01576 -89.92552 13042 ft 343 kts 16°
2026-05-06 23:40 30.03812 -89.91548 13745 ft 345 kts 16°
2026-05-06 23:41 30.06043 -89.90530 14432 ft 345 kts 15°
2026-05-06 23:41 30.08262 -89.89516 14938 ft 353 kts 15°
2026-05-06 23:41 30.10603 -89.88447 15171 ft 371 kts 16°
2026-05-06 23:41 30.13071 -89.87322 15319 ft 392 kts 15°
2026-05-06 23:42 30.15667 -89.86136 15482 ft 410 kts 16°
2026-05-06 23:42 30.18363 -89.84894 15785 ft 422 kts 16°
2026-05-06 23:42 30.21103 -89.83622 16328 ft 426 kts 16°
2026-05-06 23:42 30.23854 -89.82337 16935 ft 427 kts 16°
2026-05-06 23:43 30.26608 -89.81049 17536 ft 428 kts 15°
2026-05-06 23:43 30.29379 -89.79756 18077 ft 431 kts 15°
2026-05-06 23:43 30.32171 -89.78454 18538 ft 434 kts 15°
2026-05-06 23:43 30.34983 -89.77143 18997 ft 437 kts 15°
2026-05-06 23:44 30.37811 -89.75824 19462 ft 439 kts 15°
2026-05-06 23:44 30.40656 -89.74497 19938 ft 442 kts 15°
2026-05-06 23:44 30.43510 -89.73164 20391 ft 444 kts 15°
2026-05-06 23:44 30.46384 -89.71822 20842 ft 446 kts 15°
2026-05-06 23:45 30.49271 -89.70473 21272 ft 449 kts 15°
2026-05-06 23:45 30.52179 -89.69113 21705 ft 452 kts 15°
2026-05-06 23:45 30.55104 -89.67745 22129 ft 454 kts 15°
2026-05-06 23:45 30.58043 -89.66369 22551 ft 457 kts 15°
2026-05-06 23:46 30.60997 -89.64984 22975 ft 459 kts 14°
2026-05-06 23:46 30.63971 -89.63590 23393 ft 462 kts 14°
2026-05-06 23:46 30.66955 -89.62190 23740 ft 464 kts 14°
2026-05-06 23:46 30.69958 -89.60780 24082 ft 466 kts 14°
2026-05-06 23:47 30.72966 -89.59366 24414 ft 468 kts 14°
2026-05-06 23:47 30.75937 -89.57969 24737 ft 470 kts 14°
2026-05-06 23:47 30.78975 -89.56539 25063 ft 472 kts 14°
2026-05-06 23:47 30.82026 -89.55102 25389 ft 474 kts 14°
2026-05-06 23:48 30.85088 -89.53660 25709 ft 476 kts 14°
2026-05-06 23:48 30.88160 -89.52211 26011 ft 478 kts 14°
2026-05-06 23:48 30.91245 -89.50756 26323 ft 479 kts 14°
2026-05-06 23:48 30.94342 -89.49294 26619 ft 481 kts 14°
2026-05-06 23:49 30.97456 -89.47823 26881 ft 485 kts 14°
2026-05-06 23:49 31.00603 -89.46338 27015 ft 491 kts 14°
2026-05-06 23:49 31.03774 -89.44839 27294 ft 492 kts 14°
2026-05-06 23:49 31.06946 -89.43336 27625 ft 493 kts 14°
2026-05-06 23:50 31.10124 -89.41828 27916 ft 494 kts 14°
2026-05-06 23:50 31.16520 -89.38793 28403 ft 498 kts 14°
2026-05-06 23:50 31.19738 -89.37265 28659 ft 500 kts 14°
2026-05-06 23:51 31.22962 -89.35733 28916 ft 501 kts 14°
2026-05-06 23:51 31.26204 -89.34192 29147 ft 504 kts 15°
2026-05-06 23:51 31.29461 -89.32643 29308 ft 507 kts 15°
2026-05-06 23:51 31.32738 -89.31083 29526 ft 509 kts 15°
2026-05-06 23:52 31.36020 -89.29517 29827 ft 509 kts 15°
2026-05-06 23:52 31.39243 -89.27978 30175 ft 508 kts 15°
2026-05-06 23:52 31.42513 -89.26413 30516 ft 506 kts 15°
2026-05-06 23:52 31.45764 -89.24858 30831 ft 504 kts 15°
2026-05-06 23:53 31.49011 -89.23305 31122 ft 504 kts 15°
2026-05-06 23:53 31.52256 -89.21753 31438 ft 503 kts 15°
2026-05-06 23:53 31.55499 -89.20202 31689 ft 504 kts 16°
2026-05-06 23:53 31.58753 -89.18644 31927 ft 505 kts 16°
2026-05-06 23:54 31.62002 -89.17087 32230 ft 504 kts 16°
2026-05-06 23:54 31.65244 -89.15531 32550 ft 503 kts 16°
2026-05-06 23:54 31.68479 -89.13976 32852 ft 502 kts 16°
2026-05-06 23:54 31.71710 -89.12424 33135 ft 502 kts 16°
2026-05-06 23:55 31.74936 -89.10872 33419 ft 501 kts 16°
2026-05-06 23:55 31.78161 -89.09320 33714 ft 500 kts 16°
2026-05-06 23:55 31.81381 -89.07769 34017 ft 500 kts 17°
2026-05-06 23:55 31.84600 -89.06217 34257 ft 500 kts 17°
2026-05-06 23:56 31.87822 -89.04664 34506 ft 499 kts 17°
2026-05-06 23:56 31.91027 -89.03116 34768 ft 498 kts 17°
2026-05-06 23:56 31.94215 -89.01576 34942 ft 499 kts 17°
2026-05-06 23:56 31.97443 -89.00018 34916 ft 502 kts 17°
2026-05-06 23:57 32.03904 -88.96891 34918 ft 501 kts 17°
2026-05-06 23:57 32.10306 -88.93783 34931 ft 497 kts 17°
2026-05-06 23:58 32.16714 -88.90674 34925 ft 498 kts 17°
2026-05-06 23:58 32.23122 -88.87558 34921 ft 498 kts 17°
2026-05-06 23:59 32.29498 -88.84454 34919 ft 499 kts 16°
2026-05-06 23:59 32.35931 -88.81386 34928 ft 496 kts 11°
2026-05-07 00:00 32.42584 -88.79955 34917 ft 480 kts 355°
2026-05-07 00:00 32.48166 -88.79692 34919 ft 479 kts 354°
2026-05-07 00:01 32.54839 -88.79410 34924 ft 481 kts 354°
2026-05-07 00:01 32.61533 -88.79074 34962 ft 482 kts 354°
2026-05-07 00:02 32.68244 -88.78705 34953 ft 483 kts 354°
2026-05-07 00:02 32.74973 -88.78322 34955 ft 484 kts 354°
2026-05-07 00:03 32.81661 -88.77941 34953 ft 485 kts 354°
2026-05-07 00:03 32.88404 -88.77559 34988 ft 485 kts 354°
2026-05-07 00:04 32.95161 -88.77178 34946 ft 486 kts 352°
2026-05-07 00:04 33.01916 -88.76796 34935 ft 487 kts 352°
2026-05-07 00:05 33.08684 -88.76413 34913 ft 487 kts 352°
2026-05-07 00:05 33.15453 -88.76028 34965 ft 487 kts 351°
2026-05-07 00:06 33.22236 -88.75643 34945 ft 488 kts 351°
2026-05-07 00:06 33.29026 -88.75258 34946 ft 489 kts 351°
2026-05-07 00:07 33.35825 -88.74870 34951 ft 489 kts 351°
2026-05-07 00:07 33.42630 -88.74481 34953 ft 490 kts 351°
2026-05-07 00:08 33.49435 -88.74092 34953 ft 490 kts 351°
2026-05-07 00:08 33.56251 -88.73701 34943 ft 490 kts 351°
2026-05-07 00:09 33.63048 -88.73310 34963 ft 490 kts 351°
2026-05-07 00:09 33.69864 -88.72919 34975 ft 491 kts 350°
2026-05-07 00:10 33.76691 -88.72527 34942 ft 491 kts 350°
2026-05-07 00:10 33.83471 -88.72135 34942 ft 491 kts 350°
2026-05-07 00:11 33.90344 -88.71738 34943 ft 491 kts 350°
2026-05-07 00:11 33.97121 -88.71346 34997 ft 491 kts 349°
2026-05-07 00:12 34.03950 -88.70951 34985 ft 491 kts 349°
2026-05-07 00:12 34.10777 -88.70554 34990 ft 490 kts 349°
2026-05-07 00:13 34.17585 -88.70157 35005 ft 490 kts 349°
2026-05-07 00:13 34.24387 -88.69762 35026 ft 490 kts 349°
2026-05-07 00:14 34.31192 -88.69366 35015 ft 489 kts 349°
2026-05-07 00:14 34.37995 -88.68968 35000 ft 489 kts 349°
2026-05-07 00:15 34.44787 -88.68571 34995 ft 488 kts 349°
2026-05-07 00:15 34.51566 -88.68175 34982 ft 489 kts 349°
2026-05-07 00:16 34.58364 -88.67776 34989 ft 489 kts 349°
2026-05-07 00:16 34.65184 -88.67380 34727 ft 495 kts 349°
2026-05-07 00:17 34.68626 -88.67178 34439 ft 494 kts 349°
2026-05-07 00:17 34.72061 -88.66973 33822 ft 495 kts 349°
2026-05-07 00:17 34.75501 -88.66768 33228 ft 495 kts 350°
2026-05-07 00:17 34.78943 -88.66564 32557 ft 495 kts 350°
2026-05-07 00:18 34.82398 -88.66267 31895 ft 507 kts 359°
2026-05-07 00:18 34.85834 -88.64969 31429 ft 528 kts 17°
2026-05-07 00:18 34.88947 -88.62487 30987 ft 542 kts 34°
2026-05-07 00:18 34.91765 -88.59459 30529 ft 540 kts 37°
2026-05-07 00:19 34.94524 -88.56358 30032 ft 538 kts 37°
2026-05-07 00:19 34.97269 -88.53281 29486 ft 534 kts 37°
2026-05-07 00:19 35.00015 -88.50269 28992 ft 529 kts 35°
2026-05-07 00:19 35.02767 -88.47312 28463 ft 525 kts 34°
2026-05-07 00:20 35.05467 -88.44432 27978 ft 520 kts 35°
2026-05-07 00:20 35.08171 -88.41544 27495 ft 515 kts 35°
2026-05-07 00:20 35.10894 -88.38632 27009 ft 511 kts 35°
2026-05-07 00:20 35.13518 -88.35822 26554 ft 506 kts 35°
2026-05-07 00:21 35.16148 -88.33002 26125 ft 501 kts 35°
2026-05-07 00:21 35.18764 -88.30197 25617 ft 499 kts 34°
2026-05-07 00:21 35.21358 -88.27412 25155 ft 495 kts 34°
2026-05-07 00:21 35.23936 -88.24642 24744 ft 491 kts 34°
2026-05-07 00:22 35.26499 -88.21886 24223 ft 490 kts 34°
2026-05-07 00:22 35.29052 -88.19138 23757 ft 487 kts 34°
2026-05-07 00:22 35.31588 -88.16407 23226 ft 484 kts 34°
2026-05-07 00:22 35.34108 -88.13689 22749 ft 480 kts 34°
2026-05-07 00:23 35.36590 -88.11007 22332 ft 474 kts 34°
2026-05-07 00:23 35.39057 -88.08342 21806 ft 471 kts 34°
2026-05-07 00:23 35.41506 -88.05694 21368 ft 467 kts 34°
2026-05-07 00:23 35.43933 -88.03066 20926 ft 464 kts 34°
2026-05-07 00:24 35.46340 -88.00460 20488 ft 460 kts 34°
2026-05-07 00:24 35.48733 -87.97866 20089 ft 458 kts 34°
2026-05-07 00:24 35.51114 -87.95284 19609 ft 456 kts 34°
2026-05-07 00:24 35.53487 -87.92705 19170 ft 454 kts 34°
2026-05-07 00:25 35.55849 -87.90139 18712 ft 453 kts 34°
2026-05-07 00:25 35.58205 -87.87580 18268 ft 451 kts 34°
2026-05-07 00:25 35.60547 -87.85031 17769 ft 449 kts 34°
2026-05-07 00:25 35.62875 -87.82496 17327 ft 445 kts 35°
2026-05-07 00:26 35.65182 -87.79982 16897 ft 442 kts 35°
2026-05-07 00:26 35.67465 -87.77481 16460 ft 438 kts 35°
2026-05-07 00:26 35.69739 -87.75002 16039 ft 435 kts 35°
2026-05-07 00:26 35.71994 -87.72544 15616 ft 431 kts 35°
2026-05-07 00:27 35.74231 -87.70097 15219 ft 428 kts 36°
2026-05-07 00:27 35.76262 -87.67434 14959 ft 428 kts 52°
2026-05-07 00:27 35.77571 -87.64131 14497 ft 431 kts 69°
2026-05-07 00:27 35.78595 -87.60658 13974 ft 432 kts 70°
2026-05-07 00:28 35.79615 -87.57176 13430 ft 432 kts 69°
2026-05-07 00:28 35.80652 -87.53737 12897 ft 424 kts 69°
2026-05-07 00:28 35.81688 -87.50374 12395 ft 415 kts 68°
2026-05-07 00:28 35.82715 -87.47096 11914 ft 406 kts 67°
2026-05-07 00:29 35.83879 -87.43969 11450 ft 397 kts 62°
2026-05-07 00:29 35.85102 -87.40962 11012 ft 388 kts 62°
2026-05-07 00:30 35.87393 -87.31958 9966 ft 351 kts 99°
2026-05-07 00:30 35.87005 -87.29092 9909 ft 331 kts 105°
2026-05-07 00:30 35.86523 -87.26289 9273 ft 333 kts 105°
2026-05-07 00:30 35.86040 -87.23560 9120 ft 319 kts 105°
2026-05-07 00:31 35.85587 -87.20941 9014 ft 304 kts 105°
2026-05-07 00:31 35.85168 -87.18472 8995 ft 286 kts 105°
2026-05-07 00:31 35.84964 -87.16133 9002 ft 269 kts 84°
2026-05-07 00:31 35.85330 -87.13892 9021 ft 269 kts 76°
2026-05-07 00:32 35.85765 -87.11641 8796 ft 272 kts 76°
2026-05-07 00:32 35.86202 -87.09359 8395 ft 274 kts 76°
2026-05-07 00:32 35.86636 -87.07067 7917 ft 275 kts 76°
2026-05-07 00:32 35.87061 -87.04773 7506 ft 273 kts 76°
2026-05-07 00:33 35.87474 -87.02496 7121 ft 270 kts 76°
2026-05-07 00:33 35.87869 -87.00246 6745 ft 268 kts 75°
2026-05-07 00:33 35.88249 -86.97993 6344 ft 267 kts 76°
2026-05-07 00:33 35.88616 -86.95791 6052 ft 258 kts 76°
2026-05-07 00:34 35.88965 -86.93658 5843 ft 250 kts 76°
2026-05-07 00:34 35.89325 -86.91564 5620 ft 249 kts 76°
2026-05-07 00:34 35.89687 -86.89504 5285 ft 244 kts 76°
2026-05-07 00:34 35.90047 -86.87457 4849 ft 244 kts 76°
2026-05-07 00:35 35.90421 -86.85474 4574 ft 235 kts 76°
2026-05-07 00:35 35.90792 -86.83506 4209 ft 231 kts 76°
2026-05-07 00:35 35.91149 -86.81580 3917 ft 228 kts 75°
2026-05-07 00:35 35.91654 -86.79804 3823 ft 213 kts 54°
2026-05-07 00:36 35.92595 -86.78472 3699 ft 202 kts 45°
2026-05-07 00:36 35.93527 -86.77214 3503 ft 196 kts 46°
2026-05-07 00:36 35.94406 -86.76028 3248 ft 193 kts 46°
2026-05-07 00:36 35.95466 -86.75065 3040 ft 193 kts 17°
2026-05-07 00:37 35.96762 -86.74631 3014 ft 192 kts 20°
2026-05-07 00:37 35.97970 -86.74037 2992 ft 184 kts 18°
2026-05-07 00:37 35.99177 -86.73589 2987 ft 178 kts 16°
2026-05-07 00:37 36.00335 -86.73150 2943 ft 174 kts 17°
2026-05-07 00:38 36.01480 -86.72703 2757 ft 168 kts 17°
2026-05-07 00:38 36.02542 -86.72285 2527 ft 157 kts 18°
2026-05-07 00:38 36.03574 -86.71877 2361 ft 153 kts 18°
2026-05-07 00:38 36.04572 -86.71483 2115 ft 147 kts 18°
2026-05-07 00:39 36.05555 -86.71094 1938 ft 147 kts 18°
2026-05-07 00:39 36.06535 -86.70705 1723 ft 150 kts 17°
2026-05-07 00:39 36.07529 -86.70317 1499 ft 149 kts 17°
2026-05-07 00:39 36.08524 -86.69923 1265 ft 151 kts 17°
2026-05-07 00:40 36.09532 -86.69533 1047 ft 152 kts 18°
2026-05-07 00:40 36.10526 -86.69143 849 ft 148 kts 17°
2026-05-07 00:40 36.11494 -86.68758 669 ft 146 kts 17°
2026-05-07 00:40 36.12448 -86.68381 570 ft 134 kts 18°
2026-05-07 00:41 36.13132 -86.68113 575 ft 71 kts 18°
2026-05-07 00:41 36.13454 -86.67987 576 ft 39 kts 18°
2026-05-07 00:41 36.13665 -86.67902 577 ft 15 kts 17°
2026-05-07 00:41 36.13750 -86.67838 581 ft 15 kts 69°
2026-05-07 00:42 36.13737 -86.67718 579 ft 14 kts 108°
2026-05-07 00:42 36.13673 -86.67714 576 ft 10 kts 199°
2026-05-07 00:42 36.13608 -86.67734 574 ft 8 kts 172°
2026-05-07 00:42 36.13555 -86.67749 574 ft 8 kts 199°
2026-05-07 00:43 36.13519 -86.67704 572 ft 9 kts 107°
2026-05-07 00:43 36.13496 -86.67612 571 ft 14 kts 107°
2026-05-07 00:43 36.13462 -86.67476 566 ft 18 kts 108°
2026-05-07 00:43 36.13424 -86.67339 569 ft 8 kts 121°
2026-05-07 00:44 36.13380 -86.67323 568 ft 7 kts 186°
2026-05-07 00:44 36.13324 -86.67345 567 ft 11 kts 197°
2026-05-07 00:44 36.13234 -86.67366 571 ft 14 kts 184°
2026-05-07 00:44 36.13139 -86.67376 568 ft 14 kts 185°
2026-05-07 00:45 36.13046 -86.67375 568 ft 13 kts 167°
2026-05-07 00:45 36.12968 -86.67323 573 ft 13 kts 141°
2026-05-07 00:45 36.12895 -86.67253 568 ft 13 kts 154°
2026-05-07 00:45 36.12825 -86.67186 569 ft 13 kts 133°
2026-05-07 00:46 36.12767 -86.67104 569 ft 12 kts 130°
2026-05-07 00:46 36.12712 -86.67022 568 ft 12 kts 130°
2026-05-07 00:46 36.12660 -86.66946 570 ft 10 kts 129°
2026-05-07 00:46 36.12674 -86.66879 571 ft 10 kts 43°
2026-05-07 00:47 36.12724 -86.66824 573 ft 9 kts 41°
2026-05-07 00:47 36.12778 -86.66784 573 ft 9 kts 13°
2026-05-07 00:47 36.12837 -86.66803 569 ft 9 kts 323°
2026-05-07 00:47 36.12878 -86.66857 568 ft 9 kts 311°
2026-05-07 00:48 36.12916 -86.66912 571 ft 8 kts 305°
2026-05-07 00:48 36.12937 -86.66958 568 ft 3 kts 298°
2026-05-07 00:48 36.12942 -86.66969 568 ft 0 kts 298°